This is the latest recevied weather packets stored in our database for station/object SR9SMR. If no packets are shown the sender has not sent any weather packets the latest 10 day(s).
| Time | Temp. | Humidity | Pressure | Rain* | Wind** | Luminosity | Snow |
|---|---|---|---|---|---|---|---|
| 1777641541 | 12.78° C | 100% | 910.7 hPa | - | - | - | - |
| 1777641346 | 11.67° C | 100% | 909.3 hPa | - | - | - | - |
| 1777641040 | 11.11° C | 100% | 908.9 hPa | - | - | - | - |
| 1777640944 | 10.56° C | 100% | 910.5 hPa | - | - | - | - |
| 1777640640 | 10.56° C | 100% | 909 hPa | - | - | - | - |
| 1777640453 | 10° C | 100% | 908.6 hPa | - | - | - | - |
| 1777640078 | 10° C | 100% | 909 hPa | - | - | - | - |
| 1777639818 | 10.56° C | 100% | 909.6 hPa | - | - | - | - |
| 1777639511 | 11.11° C | 100% | 909.8 hPa | - | - | - | - |
| 1777639191 | 10.56° C | 100% | 908.2 hPa | - | - | - | - |
| 1777638883 | 10.56° C | 100% | 913.9 hPa | - | - | - | - |
| 1777638719 | 10.56° C | 100% | 908.7 hPa | - | - | - | - |
| 1777638417 | 11.67° C | 100% | 910.6 hPa | - | - | - | - |
| 1777638109 | 10° C | 100% | 909.8 hPa | - | - | - | - |
| 1777637904 | 9.44° C | 100% | 909.1 hPa | - | - | - | - |
| 1777637570 | 10° C | 100% | 912.5 hPa | - | - | - | - |
| 1777637251 | 10.56° C | 100% | 913.2 hPa | - | - | - | - |
| 1777637054 | 11.11° C | 100% | 909.3 hPa | - | - | - | - |
| 1777636474 | 11.11° C | 100% | 909.6 hPa | - | - | - | - |
| 1777636163 | 10.56° C | 100% | 909 hPa | - | - | - | - |
| 1777636050 | 10.56° C | 100% | 909.6 hPa | - | - | - | - |
| 1777635828 | 10° C | 100% | 909.5 hPa | - | - | - | - |
| 1777635522 | 10.56° C | 100% | 914.3 hPa | - | - | - | - |
| 1777635214 | 10° C | 100% | 909.4 hPa | - | - | - | - |
| 1777635157 | 10° C | 100% | 909.4 hPa | - | - | - | - |
* Rain since midnight (hover to see other rain measurements)
** Current wind speed in m/s (hover to see current wind gust speed)